This is the latest recevied weather packets stored in our database for station/object G4KVI. If no packets are shown the sender has not sent any weather packets the latest 10 day(s).
| Time | Temp. | Humidity | Pressure | Rain* | Wind** | Luminosity | Snow |
|---|---|---|---|---|---|---|---|
| 1788361804 | 20° C | 85% | 1018.3 hPa | 0 mm | - | 153 W/m² | - |
| 1788361504 | 20° C | 85% | 1018.3 hPa | 0 mm | - | 111 W/m² | - |
| 1788361204 | 20° C | 85% | 1018.2 hPa | 0 mm | - | 204 W/m² | - |
| 1788360904 | 19.44° C | 86% | 1018.3 hPa | 0 mm | - | 199 W/m² | - |
| 1788360604 | 19.44° C | 86% | 1018.3 hPa | 0 mm | - | 198 W/m² | - |
| 1788360304 | 19.44° C | 87% | 1018.2 hPa | 0 mm | - | 171 W/m² | - |
| 1788360004 | 19.44° C | 88% | 1018.6 hPa | 0 mm | - | 154 W/m² | - |
| 1788359704 | 18.89° C | 88% | 1018.6 hPa | 0 mm | - | 152 W/m² | - |
| 1788359404 | 18.89° C | 88% | 1018.6 hPa | 0 mm | - | 160 W/m² | - |
| 1788359104 | 18.89° C | 88% | 1018.9 hPa | 0 mm | - | 157 W/m² | - |
| 1788358804 | 18.89° C | 88% | 1018.8 hPa | 0 mm | - | 149 W/m² | - |
| 1788358504 | 18.89° C | 89% | 1019 hPa | 0 mm | - | 151 W/m² | - |
| 1788358204 | 18.33° C | 89% | 1018.9 hPa | 0 mm | - | 139 W/m² | - |
| 1788357904 | 18.33° C | 88% | 1018.7 hPa | 0 mm | - | 135 W/m² | - |
| 1788357604 | 18.89° C | 88% | 1019 hPa | 0 mm | - | 106 W/m² | - |
| 1788357304 | 18.89° C | 88% | 1019.1 hPa | 0 mm | - | 61 W/m² | - |
| 1788357004 | 18.33° C | 88% | 1018.7 hPa | 0 mm | - | 127 W/m² | - |
| 1788356704 | 18.89° C | 87% | 1018.9 hPa | 0 mm | - | 141 W/m² | - |
| 1788356404 | 18.89° C | 87% | 1019 hPa | 0 mm | - | 132 W/m² | - |
| 1788356104 | 18.89° C | 87% | 1018.8 hPa | 0 mm | - | 151 W/m² | - |
| 1788355804 | 18.89° C | 87% | 1019.1 hPa | 0 mm | - | 149 W/m² | - |
| 1788355504 | 18.89° C | 88% | 1019.1 hPa | 0 mm | - | 140 W/m² | - |
| 1788355204 | 18.89° C | 87% | 1019.3 hPa | 0 mm | - | 145 W/m² | - |
| 1788354904 | 18.89° C | 88% | 1019.2 hPa | 0 mm | - | 130 W/m² | - |
| 1788354604 | 18.33° C | 88% | 1019.2 hPa | 0 mm | - | 227 W/m² | - |
* Rain latest hour (hover to see other rain measurements)
** Current wind speed in m/s (hover to see current wind gust speed)